Location: Irma
(52.9170°N, 111.2330°W)
Time: 19:55:37
(UTC-06:00)

Amateur Radio Satellites - All Passes

Search period start: 28 August 2016 19:25
Search period end: 29 August 2016 19:25
Location: Irma, 52.9170°N, 111.2330°W

Satellite Date Start Highest point End Downlink Frequencies (MHz)
Time Altitude Azimuth
YUBILEINY 28 Aug 19:34:08 19:41:57 38° 277° (W) 19:49:42 435.215
BRITE-PL 28 Aug 19:34:54 19:38:45 22° 273° (W) 19:42:50 437.365/2234.400
AIST 1 28 Aug 19:35:14 19:38:27 19° 63° (ENE) 19:41:39
CINEMA 3 28 Aug 19:37:23 19:42:14 50° 68° (ENE) 19:46:58 145.822/145.860
Cubesat XI-IV 28 Aug 19:38:21 19:43:12 35° 264° (W) 19:48:04 437.490
SEEDS 28 Aug 19:40:21 19:43:56 28° 64° (ENE) 19:47:32 437.485
UWE-3 28 Aug 19:45:20 19:48:05 16° 56° (NE) 19:50:48 435.000/436.395/437.385
PCSat 28 Aug 19:45:45 19:50:55 41° 37° (NE) 19:56:03 145.827
NOAA 15 28 Aug 19:48:19 19:52:31 24° 269° (W) 19:56:45 137.62
CUBEBUG 2 28 Aug 19:49:03 19:52:41 23° 61° (ENE) 19:56:15 437.445
CUTE-I 28 Aug 19:50:16 19:54:50 28° 267° (W) 19:59:25 437.470
BEESAT 2 28 Aug 19:54:16 19:57:27 23° 242° (WSW) 20:00:37 435.950
CUBESAT XI-V 28 Aug 19:57:04 20:01:15 33° 297° (WNW) 20:05:27 437.345
ZACube-1 28 Aug 19:57:48 20:00:06 14° 55° (NE) 20:02:26 437.345
GONETS M04 28 Aug 19:58:16 19:58:24 10° 23° (NNE) 19:58:33
CANX-2 28 Aug 20:03:31 20:07:42 68° 72° (ENE) 20:11:54 2200.000
STRAND 1 28 Aug 20:06:19 20:10:47 30° 94° (E) 20:15:13 437.568
AAUSAT CUBESAT 2 28 Aug 20:08:07 20:11:44 30° 64° (ENE) 20:15:21 437.432
CUTE 1.7 + AOD 2 28 Aug 20:09:23 20:13:34 69° 72° (ENE) 20:17:46 437.475
LilacSat-2 28 Aug 20:11:14 20:12:54 12° 273° (W) 20:14:32 437.200
COMPASS 1 28 Aug 20:16:58 20:20:53 44° 68° (ENE) 20:24:50 437.405
HO-68 28 Aug 20:32:24 20:39:36 72° 255° (WSW) 20:46:50 435.675
AIST 2 28 Aug 20:36:54 20:41:06 73° 44° (NE) 20:45:17 435.215
NOAA 18 28 Aug 20:42:38 20:45:20 14° 276° (W) 20:48:03 137.9125
DOVE 4 28 Aug 20:43:43 20:47:44 22° 272° (W) 20:51:49 437.250
GOMX 1 28 Aug 20:45:31 20:47:39 12° 280° (W) 20:49:48 467.674
Oscar 11 28 Aug 21:00:24 21:04:28 43° 68° (ENE) 21:08:35 145.826/435.025
Cosmos 2504 28 Aug 21:00:25 21:06:03 25° 281° (W) 21:11:36 435.465 / 435.565
FUNcube-1 28 Aug 21:09:22 21:13:36 49° 69° (ENE) 21:17:47 145.935
AIST 1 28 Aug 21:12:07 21:16:30 63° 264° (W) 21:20:50
CINEMA 3 28 Aug 21:15:13 21:19:33 29° 267° (W) 21:23:51 145.822/145.860
SEEDS 28 Aug 21:15:38 21:19:32 38° 263° (W) 21:23:29 437.485
UWE-3 28 Aug 21:19:27 21:24:00 88° 259° (W) 21:28:27 435.000/436.395/437.385
Cosmos 2491 28 Aug 21:21:09 21:28:30 29° 305° (NW) 21:35:56 435.465 / 435.565
CUBEBUG 2 28 Aug 21:24:25 21:29:01 59° 259° (W) 21:33:29 437.445
PCSat 28 Aug 21:29:14 21:34:31 54° 239° (WSW) 21:39:47 145.827
ZACube-1 28 Aug 21:31:21 21:35:47 82° 74° (ENE) 21:40:08 437.345
DELFI C3 28 Aug 21:36:32 21:40:16 42° 68° (ENE) 21:44:02 145.870
CANX-2 28 Aug 21:41:22 21:44:02 16° 272° (W) 21:46:43 2200.000
AAUSAT CUBESAT 2 28 Aug 21:43:23 21:47:10 35° 264° (W) 21:50:59 437.432
STRAND 1 28 Aug 21:45:16 21:50:12 50° 294° (WNW) 21:55:07 437.568
CUTE 1.7 + AOD 2 28 Aug 21:47:15 21:49:53 16° 272° (W) 21:52:33 437.475
GONETS M04 28 Aug 21:51:56 21:59:23 29° 55° (NE) 22:06:47
COMPASS 1 28 Aug 21:53:17 21:56:39 24° 268° (W) 22:00:03 437.405
AUBIESAT-1 28 Aug 22:03:02 22:06:55 27° 54° (NE) 22:10:43 437.475
Cosmos 2499 28 Aug 22:07:01 22:12:25 22° 54° (NE) 22:17:46 435.465 / 435.565
HUMSAT D 28 Aug 22:07:11 22:11:09 46° 69° (ENE) 22:15:07 437.325/437.525
M-CUBED/EXP-1 PRIME 28 Aug 22:09:21 22:13:37 34° 57° (ENE) 22:17:48 437.505
O/OREOS (USA 219) 28 Aug 22:09:56 22:13:26 21° 40° (NE) 22:16:56 437.305
AIST 2 28 Aug 22:16:05 22:19:10 20° 244° (WSW) 22:22:15 435.215
PRISM 28 Aug 22:17:41 22:21:51 61° 102° (ESE) 22:25:59 437.425
CUBEBUG 1 28 Aug 22:23:03 22:25:15 14° 53° (NE) 22:27:28 437.445
HO-68 28 Aug 22:24:07 22:28:38 17° 276° (W) 22:33:10 435.675
VELOX 1 28 Aug 22:24:42 22:26:35 13° 51° (NE) 22:28:29 145.980
ANTELSAT 28 Aug 22:31:42 22:33:41 13° 86° (E) 22:35:40 437.575/2403.000
Oscar 11 28 Aug 22:37:11 22:40:48 26° 267° (W) 22:44:26 145.826/435.025
DX 1 28 Aug 22:37:57 22:39:34 12° 50° (NE) 22:41:13 434.975-435.025
FUNcube-1 28 Aug 22:46:34 22:50:06 23° 268° (W) 22:53:36 145.935
UWE-3 28 Aug 22:58:55 23:01:06 13° 274° (W) 23:03:17 435.000/436.395/437.385
TIGRISAT 28 Aug 23:01:14 23:04:39 23° 92° (E) 23:08:02 435.000
CUSAT 1 28 Aug 23:01:30 23:02:38 11° 78° (ENE) 23:03:51 437.405
ESTCUBE 1 28 Aug 23:08:03 23:12:15 40° 66° (ENE) 23:16:29 437.505/2401.250
ZACube-1 28 Aug 23:10:12 23:12:39 14° 273° (W) 23:15:04 437.345
AISAT 28 Aug 23:11:22 23:15:12 29° 62° (ENE) 23:19:04 437.250
DELFI C3 28 Aug 23:12:09 23:15:18 23° 268° (W) 23:18:30 145.870
UKube-1 28 Aug 23:14:16 23:17:15 18° 56° (ENE) 23:20:14 .
PCSat 28 Aug 23:16:12 23:16:44 10° 260° (W) 23:17:18 145.827
STRAND 1 28 Aug 23:26:34 23:28:19 12° 314° (NW) 23:30:02 437.568
Cosmos 2491 28 Aug 23:28:59 23:29:25 10° 336° (NNW) 23:29:52 435.465 / 435.565
UNISAT 6 28 Aug 23:29:53 23:34:02 42° 98° (E) 23:38:05 437.425
AUBIESAT-1 28 Aug 23:36:30 23:41:05 57° 253° (WSW) 23:45:38 437.475
50 SAT 28 Aug 23:39:07 23:42:28 38° 68° (ENE) 23:45:50 437.505
M-CUBED/EXP-1 PRIME 28 Aug 23:43:30 23:48:00 44° 256° (WSW) 23:52:30 437.505
HUMSAT D 28 Aug 23:43:43 23:47:01 23° 268° (W) 23:50:19 437.325/437.525
QB50P1 28 Aug 23:48:24 23:50:16 13° 86° (E) 23:52:07 145.935-145.965
GONETS M04 28 Aug 23:48:37 23:57:33 89° 80° (E) 00:06:25
O/OREOS (USA 219) 28 Aug 23:48:51 23:53:28 86° 242° (WSW) 23:58:05 437.305
PRISM 28 Aug 23:53:43 23:56:48 20° 301° (WNW) 23:59:52 437.425
CUBEBUG 1 28 Aug 23:56:24 00:00:48 74° 72° (ENE) 00:05:16 437.445
VELOX 1 28 Aug 23:57:50 00:02:15 66° 70° (ENE) 00:06:43 145.980
POPSAT HIP 1 28 Aug 23:58:02 00:00:33 15° 88° (E) 00:03:02 437.405
Cosmos 2499 28 Aug 23:59:35 00:06:45 86° 81° (E) 00:13:52 435.465 / 435.565
JAS-2 29 Aug 00:01:57 00:06:21 18° 85° (E) 00:11:00 435.910
SO-50 29 Aug 00:03:29 00:07:43 31° 120° (ESE) 00:11:55 436.795
ANTELSAT 29 Aug 00:06:45 00:11:06 88° 286° (WNW) 00:15:22 437.575/2403.000
SPROUT 29 Aug 00:07:59 00:12:06 45° 68° (ENE) 00:16:14 437.525
DANDE 29 Aug 00:10:09 00:11:37 13° 86° (E) 00:13:12 436.750
DX 1 29 Aug 00:10:36 00:14:56 63° 70° (ENE) 00:19:19 434.975-435.025
TISAT 1 29 Aug 00:23:21 00:26:26 20° 58° (ENE) 00:29:32 437.305
DUCHIFAT 1 29 Aug 00:23:29 00:26:54 23° 92° (E) 00:30:17 145.980
QB50P2 29 Aug 00:27:56 00:31:42 30° 95° (E) 00:35:25 145.880/145.840
POLYITAN 1 29 Aug 00:30:27 00:34:13 30° 95° (E) 00:37:55 437.675
SWISSCUBE 29 Aug 00:37:06 00:37:50 10° 46° (NE) 00:38:35 437.505
TIGRISAT 29 Aug 00:37:28 00:41:39 49° 291° (WNW) 00:45:45 435.000
NANOSAT C BR1 29 Aug 00:37:43 00:41:35 33° 96° (E) 00:45:23 145.865
CUSAT 1 29 Aug 00:40:24 00:43:39 66° 287° (WNW) 00:47:54 437.405
ESTCUBE 1 29 Aug 00:45:12 00:49:10 30° 265° (W) 00:53:10 437.505/2401.250
AISAT 29 Aug 00:47:15 00:51:31 44° 261° (W) 00:55:51 437.250
UKube-1 29 Aug 00:48:29 00:52:49 74° 256° (WSW) 00:57:11 .
BEESAT 29 Aug 00:52:38 00:54:37 13° 49° (NE) 00:56:38 436.000
UNISAT 6 29 Aug 01:06:57 01:10:36 27° 298° (WNW) 01:14:13 437.425
RS-15 29 Aug 01:10:11 01:20:11 36° 106° (ESE) 01:30:33 29.354- 29.394
BUGSAT 1 29 Aug 01:12:48 01:16:34 32° 96° (E) 01:20:14 437.445
50 SAT 29 Aug 01:13:26 01:16:13 21° 267° (W) 01:19:01 437.505
QB50P1 29 Aug 01:22:26 01:26:42 89° 265° (W) 01:30:55 145.935-145.965
O/OREOS (USA 219) 29 Aug 01:29:50 01:32:10 14° 262° (W) 01:34:31 437.305
POPSAT HIP 1 29 Aug 01:32:37 01:36:52 74° 287° (WNW) 01:41:03 437.405
CUBEBUG 1 29 Aug 01:34:50 01:37:38 16° 272° (W) 01:40:27 437.445
VELOX 1 29 Aug 01:36:02 01:39:10 19° 270° (W) 01:42:20 145.980
ITUPSAT 1 29 Aug 01:38:36 01:42:30 26° 59° (ENE) 01:46:25 437.325
SO-50 29 Aug 01:43:11 01:48:00 61° 320° (NW) 01:52:44 436.795
SPROUT 29 Aug 01:44:38 01:48:14 25° 267° (W) 01:51:51 437.525
ANTELSAT 29 Aug 01:44:46 01:47:12 15° 306° (NW) 01:49:35 437.575/2403.000
JAS-2 29 Aug 01:45:43 01:52:22 73° 104° (ESE) 01:59:48 435.910
GONETS M04 29 Aug 01:46:25 01:53:17 26° 284° (WNW) 02:00:08
DX 1 29 Aug 01:48:25 01:51:33 19° 270° (W) 01:54:42 434.975-435.025
DANDE 29 Aug 01:51:34 01:54:00 29° 293° (WNW) 01:56:52 436.750
Cosmos 2499 29 Aug 01:53:48 01:58:56 22° 282° (WNW) 02:04:04 435.465 / 435.565
Gurwin Techsat 1B 29 Aug 01:55:59 01:57:37 11° 82° (E) 01:59:13 435.225
TISAT 1 29 Aug 01:57:28 02:01:42 64° 258° (WSW) 02:05:57 437.305
DUCHIFAT 1 29 Aug 01:58:47 02:02:50 46° 292° (WNW) 02:06:50 145.980
QB50P2 29 Aug 02:03:40 02:07:35 37° 294° (WNW) 02:11:27 145.880/145.840
POLYITAN 1 29 Aug 02:06:12 02:10:05 36° 294° (WNW) 02:13:56 437.675
SWISSCUBE 29 Aug 02:10:01 02:14:35 48° 67° (ENE) 02:19:10 437.505
Oscar 19 29 Aug 02:11:29 02:15:59 29° 93° (E) 02:20:27 437.125/150
NANOSAT C BR1 29 Aug 02:13:30 02:17:18 33° 295° (WNW) 02:21:05 145.865
BEESAT 29 Aug 02:26:51 02:31:31 60° 69° (ENE) 02:36:14 436.000
UKube-1 29 Aug 02:28:51 02:29:40 10° 275° (W) 02:30:30 .
MOZHAYETS 4 29 Aug 02:29:50 02:32:21 15° 53° (NE) 02:34:51
STARS 29 Aug 02:48:06 02:48:14 10° 48° (NE) 02:48:22 437.465
BUGSAT 1 29 Aug 02:48:11 02:51:57 33° 295° (WNW) 02:55:39 437.445
QB50P1 29 Aug 02:59:30 03:01:52 15° 305° (NW) 03:04:14 145.935-145.965
POPSAT HIP 1 29 Aug 03:10:06 03:11:56 13° 307° (NW) 03:13:45 437.405
ITUPSAT 1 29 Aug 03:15:23 03:20:04 56° 259° (WSW) 03:24:47 437.325
RS-15 29 Aug 03:19:33 03:31:20 90° 304° (NW) 03:43:44 29.354- 29.394
SO-50 29 Aug 03:25:24 03:29:20 24° 342° (NNW) 03:33:13 436.795
Cosmos 2491 29 Aug 03:27:58 03:34:11 20° 46° (NE) 03:40:23 435.465 / 435.565
ITAMSAT 1 29 Aug 03:29:09 03:33:09 22° 91° (E) 03:37:06 435.822/435.867
JAS-2 29 Aug 03:31:23 03:37:03 32° 302° (WNW) 03:43:17 435.910
Gurwin Techsat 1B 29 Aug 03:33:21 03:38:40 63° 102° (ESE) 03:43:56 435.225
KKS-1 29 Aug 03:47:39 03:51:59 48° 68° (ENE) 03:56:19 437.445
AO-7 29 Aug 03:47:55 03:54:04 22° 87° (E) 04:00:09 29.400- 29.500
SWISSCUBE 29 Aug 03:48:32 03:52:36 28° 266° (W) 03:56:42 437.505
Oscar 19 29 Aug 03:50:31 03:55:36 53° 293° (WNW) 04:00:39 437.125/150
CUBESAT XI-V 29 Aug 03:53:52 03:56:24 15° 53° (NE) 03:58:57 437.345
MOZHAYETS 4 29 Aug 04:04:15 04:08:49 79° 72° (ENE) 04:13:24
BEESAT 29 Aug 04:06:00 04:09:42 22° 269° (W) 04:13:26 436.000
STARS 29 Aug 04:19:20 04:23:38 51° 68° (ENE) 04:27:57 437.465
YUBILEINY 29 Aug 04:54:11 04:58:41 15° 67° (ENE) 05:03:10 435.215
SO-50 29 Aug 05:07:42 05:11:17 21° 7° (N) 05:14:48 436.795
ITAMSAT 1 29 Aug 05:07:57 05:13:07 69° 290° (WNW) 05:18:15 435.822/435.867
Gurwin Techsat 1B 29 Aug 05:13:52 05:18:16 27° 302° (WNW) 05:22:40 435.225
Cosmos 2491 29 Aug 05:24:24 05:33:11 64° 73° (ENE) 05:41:57 435.465 / 435.565
KKS-1 29 Aug 05:25:03 05:28:47 25° 267° (W) 05:32:32 437.445
CUBESAT XI-V 29 Aug 05:28:27 05:33:03 77° 74° (ENE) 05:37:44 437.345
Oscar 19 29 Aug 05:31:42 05:33:52 13° 314° (NW) 05:36:03 437.125/150
RS-15 29 Aug 05:33:41 05:45:21 52° 343° (NNW) 05:57:25 29.354- 29.394
AO-7 29 Aug 05:39:48 05:48:11 80° 109° (ESE) 05:56:30 29.400- 29.500
AO-85 29 Aug 05:41:52 05:46:25 31° 119° (ESE) 05:50:45 145.980
MOZHAYETS 4 29 Aug 05:43:46 05:46:35 16° 273° (W) 05:49:23
STRAND 1 29 Aug 05:51:34 05:54:40 17° 51° (NE) 05:57:48 437.568
BRITE-PL 29 Aug 05:53:50 05:57:52 19° 85° (E) 06:01:50 437.365/2234.400
STARS 29 Aug 05:56:41 06:00:16 24° 267° (W) 06:03:53 437.465
Cosmos 2504 29 Aug 06:03:38 06:06:58 13° 70° (ENE) 06:10:15 435.465 / 435.565
Cubesat XI-IV 29 Aug 06:11:26 06:12:35 11° 82° (E) 06:13:43 437.490
NOAA 15 29 Aug 06:17:10 06:20:16 15° 86° (E) 06:23:20 137.62
CUTE-I 29 Aug 06:21:35 06:24:09 13° 84° (E) 06:26:42 437.470
HORYU 2 29 Aug 06:31:08 06:35:31 56° 101° (ESE) 06:39:51 437.375
YUBILEINY 29 Aug 06:44:56 06:53:31 59° 91° (E) 07:02:07 435.215
SO-50 29 Aug 06:48:33 06:52:58 37° 31° (NNE) 06:57:15 436.795
ITAMSAT 1 29 Aug 06:48:46 06:51:45 16° 311° (NW) 06:54:43 435.822/435.867
DOVE 4 29 Aug 06:58:51 07:01:38 15° 83° (E) 07:04:19 437.250
GOMX 1 29 Aug 06:59:19 07:04:05 30° 91° (E) 07:08:40 467.674
CUBESAT XI-V 29 Aug 07:08:02 07:11:02 17° 273° (W) 07:14:02 437.345
NOAA 18 29 Aug 07:14:13 07:19:01 30° 94° (E) 07:23:47 137.9125
AO-85 29 Aug 07:21:34 07:26:43 63° 319° (NW) 07:31:30 145.980
Cosmos 2491 29 Aug 07:21:44 07:29:39 39° 276° (W) 07:37:34 435.465 / 435.565
STRAND 1 29 Aug 07:28:00 07:33:05 76° 72° (ENE) 07:38:13 437.568
BRITE-PL 29 Aug 07:31:19 07:37:05 89° 277° (W) 07:42:44 437.365/2234.400
AO-7 29 Aug 07:33:04 07:40:21 35° 312° (NW) 07:47:36 29.400- 29.500
LilacSat-2 29 Aug 07:35:50 07:39:32 50° 99° (E) 07:43:13 437.200
PRISM 29 Aug 07:39:30 07:41:58 16° 55° (NE) 07:44:28 437.425
Cubesat XI-IV 29 Aug 07:48:30 07:53:48 61° 102° (ESE) 07:59:03 437.490
RS-15 29 Aug 07:48:52 08:00:45 52° 16° (NNE) 08:12:47 29.354- 29.394
Cosmos 2504 29 Aug 07:50:43 07:58:43 56° 92° (E) 08:06:11 435.465 / 435.565
HO-68 29 Aug 07:54:37 07:59:06 17° 84° (E) 08:03:33 435.675
NOAA 15 29 Aug 07:55:31 08:00:53 83° 106° (ESE) 08:06:13 137.62
CUTE-I 29 Aug 07:59:49 08:05:09 74° 104° (ESE) 08:10:28 437.470
HORYU 2 29 Aug 08:08:17 08:11:46 23° 301° (WNW) 08:15:15 437.375
SO-50 29 Aug 08:29:06 08:33:41 56° 233° (SW) 08:38:06 436.795
DOVE 4 29 Aug 08:35:01 08:40:12 84° 104° (ESE) 08:45:03 437.250
GOMX 1 29 Aug 08:37:06 08:42:27 54° 292° (WNW) 08:47:33 467.674
YUBILEINY 29 Aug 08:42:24 08:50:43 44° 295° (WNW) 08:59:04 435.215
ISS 29 Aug 08:46:36 08:47:23 11° 139° (SE) 08:48:09 145.825
SEEDS 29 Aug 08:53:23 08:56:48 23° 92° (E) 09:00:13 437.485
NOAA 18 29 Aug 08:54:38 08:59:59 54° 294° (WNW) 09:05:17 137.9125
UNISAT 6 29 Aug 09:00:09 09:02:36 15° 54° (NE) 09:05:01 437.425
CINEMA 3 29 Aug 09:03:14 09:07:43 49° 99° (E) 09:11:58 145.822/145.860
AO-85 29 Aug 09:03:54 09:07:59 25° 340° (NNW) 09:11:50 145.980
UWE-3 29 Aug 09:04:56 09:06:32 12° 85° (E) 09:08:07 435.000/436.395/437.385
STRAND 1 29 Aug 09:09:13 09:12:52 19° 271° (W) 09:16:31 437.568
CUBEBUG 2 29 Aug 09:09:57 09:13:01 19° 89° (E) 09:16:02 437.445
BRITE-PL 29 Aug 09:10:39 09:14:51 22° 305° (NW) 09:19:01 437.365/2234.400
LilacSat-2 29 Aug 09:10:48 09:13:34 19° 299° (WNW) 09:16:18 437.200
PRISM 29 Aug 09:12:37 09:16:44 83° 256° (WSW) 09:20:55 437.425
CANX-2 29 Aug 09:18:06 09:22:19 60° 101° (E) 09:26:31 2200.000
AAUSAT CUBESAT 2 29 Aug 09:19:23 09:22:49 24° 93° (E) 09:26:15 437.432
CUSAT 1 29 Aug 09:22:31 09:27:52 31° 64° (ENE) 09:34:15 437.405
CUTE 1.7 + AOD 2 29 Aug 09:23:51 09:28:04 60° 101° (ESE) 09:32:15 437.475
AO-7 29 Aug 09:26:31 09:30:49 15° 338° (NNW) 09:35:07 29.400- 29.500
COMPASS 1 29 Aug 09:28:58 09:32:52 36° 97° (E) 09:36:44 437.405
Cubesat XI-IV 29 Aug 09:29:06 09:33:34 28° 302° (WNW) 09:38:02 437.490
ANTELSAT 29 Aug 09:35:24 09:39:09 26° 62° (ENE) 09:42:51 437.575/2403.000
NOAA 15 29 Aug 09:36:07 09:40:06 22° 306° (NW) 09:44:04 137.62
CUTE-I 29 Aug 09:40:35 09:44:45 24° 305° (NW) 09:48:54 437.470
HO-68 29 Aug 09:40:56 09:48:09 72° 105° (ESE) 09:55:17 435.675
Cosmos 2504 29 Aug 09:44:41 09:52:22 42° 293° (WNW) 09:59:37 435.465 / 435.565
AIST 1 29 Aug 09:47:16 09:51:31 54° 95° (E) 09:55:50
BEESAT 2 29 Aug 09:52:38 09:54:37 13° 112° (ESE) 09:56:34 435.950
RS-15 29 Aug 10:02:27 10:14:53 87° 47° (NE) 10:27:14 29.354- 29.394
TIGRISAT 29 Aug 10:05:08 10:09:26 43° 67° (ENE) 10:13:39 435.000
BEESAT 3 29 Aug 10:05:18 10:08:42 29° 121° (ESE) 10:12:08 437.485
DOVE 4 29 Aug 10:13:35 10:17:15 20° 305° (NW) 10:20:48 437.250
GOMX 1 29 Aug 10:16:53 10:19:23 13° 313° (NW) 10:21:51 467.674
Oscar 11 29 Aug 10:17:20 10:21:23 38° 97° (E) 10:25:26 145.826/435.025
ISS 29 Aug 10:20:05 10:23:09 37° 157° (SSE) 10:26:14 145.825
JAS-2 29 Aug 10:23:35 10:26:27 14° 43° (NE) 10:29:28 435.910
FUNcube-1 29 Aug 10:27:21 10:31:21 43° 98° (E) 10:35:18 145.935
SEEDS 29 Aug 10:28:41 10:32:44 46° 291° (WNW) 10:36:46 437.485
UNISAT 6 29 Aug 10:34:05 10:38:40 80° 72° (ENE) 10:43:09 437.425
DANDE 29 Aug 10:36:25 10:41:09 39° 70° (ENE) 10:47:15 436.750
NOAA 18 29 Aug 10:36:55 10:39:33 14° 316° (NW) 10:42:12 137.9125
UWE-3 29 Aug 10:39:28 10:43:43 89° 108° (ESE) 10:47:52 435.000/436.395/437.385
CINEMA 3 29 Aug 10:40:48 10:44:36 26° 300° (WNW) 10:48:16 145.822/145.860
DELFI C3 29 Aug 10:42:41 10:46:15 30° 95° (E) 10:49:50 145.870
CUBEBUG 2 29 Aug 10:45:51 10:50:04 57° 289° (WNW) 10:54:09 437.445
QB50P1 29 Aug 10:45:54 10:49:12 22° 60° (ENE) 10:52:30 145.935-145.965
YUBILEINY 29 Aug 10:46:09 10:50:36 14° 324° (NW) 10:55:01 435.215
AO-85 29 Aug 10:46:28 10:49:54 19° 4° (N) 10:53:09 145.980
ZACube-1 29 Aug 10:49:49 10:54:01 76° 102° (ESE) 10:58:09 437.345
PRISM 29 Aug 10:51:33 10:52:45 11° 274° (W) 10:53:58 437.425
AAUSAT CUBESAT 2 29 Aug 10:54:32 10:58:30 44° 291° (WNW) 11:02:28 437.432
CANX-2 29 Aug 10:54:41 10:57:49 21° 300° (WNW) 11:00:58 2200.000
Cosmos 2499 29 Aug 10:55:20 10:58:44 13° 71° (ENE) 11:02:02 435.465 / 435.565
POPSAT HIP 1 29 Aug 10:55:48 10:59:20 26° 62° (ENE) 11:02:54 437.405
CUTE 1.7 + AOD 2 29 Aug 11:00:25 11:03:33 21° 300° (WNW) 11:06:42 437.475
GONETS M04 29 Aug 11:03:26 11:09:49 23° 74° (ENE) 11:16:12
CUSAT 1 29 Aug 11:04:08 11:10:16 71° 261° (W) 11:17:47 437.405
COMPASS 1 29 Aug 11:04:42 11:08:21 30° 296° (WNW) 11:12:02 437.405
ANTELSAT 29 Aug 11:11:14 11:15:40 50° 260° (W) 11:20:02 437.575/2403.000
AO-7 29 Aug 11:17:37 11:20:15 12° 6° (N) 11:22:51 29.400- 29.500
HUMSAT D 29 Aug 11:19:53 11:23:42 37° 97° (E) 11:27:30 437.325/437.525
DUCHIFAT 1 29 Aug 11:20:45 11:24:41 38° 66° (ENE) 11:28:37 145.980
QB50P2 29 Aug 11:25:57 11:30:05 49° 69° (ENE) 11:34:13 145.880/145.840
AIST 1 29 Aug 11:26:03 11:29:28 22° 296° (WNW) 11:32:55
BEESAT 2 29 Aug 11:27:50 11:31:48 84° 132° (SE) 11:35:49 435.950
POLYITAN 1 29 Aug 11:28:27 11:32:35 50° 69° (ENE) 11:36:44 437.675
HO-68 29 Aug 11:29:10 11:35:26 34° 307° (NW) 11:41:41 435.675
NANOSAT C BR1 29 Aug 11:35:14 11:39:24 54° 70° (ENE) 11:43:34 145.865
TIGRISAT 29 Aug 11:42:19 11:46:16 29° 266° (W) 11:50:11 435.000
BEESAT 3 29 Aug 11:42:24 11:46:14 49° 321° (NW) 11:50:06 437.485
Cosmos 2504 29 Aug 11:45:16 11:48:18 12° 320° (NW) 11:51:14 435.465 / 435.565
Oscar 11 29 Aug 11:53:40 11:57:27 30° 296° (WNW) 12:01:14 145.826/435.025
ISS 29 Aug 11:56:08 11:59:25 71° 177° (S) 12:02:43 145.825
Oscar 19 29 Aug 11:57:36 12:00:45 16° 50° (NE) 12:03:53 437.125/150
FUNcube-1 29 Aug 12:03:59 12:07:26 25° 298° (WNW) 12:10:50 145.935
JAS-2 29 Aug 12:05:05 12:10:18 59° 67° (ENE) 12:16:02 435.910
BUGSAT 1 29 Aug 12:07:47 12:11:54 50° 69° (ENE) 12:16:02 437.445
UNISAT 6 29 Aug 12:13:09 12:15:56 16° 272° (W) 12:18:40 437.425
RS-15 29 Aug 12:15:30 12:26:16 38° 253° (WSW) 12:36:57 29.354- 29.394
PCSat 29 Aug 12:16:37 12:21:38 40° 117° (ESE) 12:26:41 145.827
UWE-3 29 Aug 12:17:14 12:19:35 15° 305° (NW) 12:21:54 435.000/436.395/437.385
DELFI C3 29 Aug 12:17:31 12:21:08 33° 294° (WNW) 12:24:44 145.870
AIST 2 29 Aug 12:19:01 12:21:57 19° 115° (ESE) 12:24:54 435.215
DANDE 29 Aug 12:19:04 12:23:58 44° 264° (W) 12:30:17 436.750
QB50P1 29 Aug 12:20:28 12:24:41 56° 259° (W) 12:28:54 145.935-145.965
CUBEBUG 2 29 Aug 12:25:19 12:25:47 10° 310° (NW) 12:26:14 437.445
ZACube-1 29 Aug 12:27:11 12:29:49 16° 303° (WNW) 12:32:27 437.345
AO-85 29 Aug 12:27:27 12:31:38 33° 29° (NNE) 12:35:30 145.980
ESTCUBE 1 29 Aug 12:30:49 12:35:03 37° 97° (E) 12:39:17 437.505/2401.250
POPSAT HIP 1 29 Aug 12:30:49 12:34:56 45° 261° (W) 12:39:04 437.405
UKube-1 29 Aug 12:31:09 12:33:03 13° 86° (E) 12:34:56 .
AISAT 29 Aug 12:31:28 12:35:05 23° 92° (E) 12:38:40 437.250
50 SAT 29 Aug 12:35:01 12:37:51 21° 93° (E) 12:40:41 437.505
Cosmos 2499 29 Aug 12:42:35 12:50:20 59° 93° (E) 12:57:33 435.465 / 435.565
AUBIESAT-1 29 Aug 12:44:23 12:48:18 40° 104° (ESE) 12:51:55 437.475
CUSAT 1 29 Aug 12:47:39 12:51:36 17° 277° (W) 12:55:58 437.405
M-CUBED/EXP-1 PRIME 29 Aug 12:51:40 12:55:53 57° 107° (ESE) 12:59:43 437.505
HUMSAT D 29 Aug 12:55:44 12:59:15 28° 296° (WNW) 13:02:46 437.325/437.525
GONETS M04 29 Aug 12:56:33 13:05:20 83° 97° (E) 13:14:13
DUCHIFAT 1 29 Aug 12:56:44 13:00:28 29° 265° (W) 13:04:13 145.980
QB50P2 29 Aug 13:02:44 13:06:09 23° 268° (W) 13:09:35 145.880/145.840
AO-7 29 Aug 13:04:17 13:09:58 21° 33° (NNE) 13:15:37 29.400- 29.500
POLYITAN 1 29 Aug 13:05:16 13:08:40 23° 268° (W) 13:12:05 437.675
BEESAT 2 29 Aug 13:06:45 13:10:06 25° 334° (NNW) 13:13:28 435.950
NANOSAT C BR1 29 Aug 13:12:12 13:15:27 21° 269° (W) 13:18:42 145.865
CUBEBUG 1 29 Aug 13:15:04 13:19:30 65° 102° (ESE) 13:23:54 437.445
ITAMSAT 1 29 Aug 13:16:47 13:19:20 14° 47° (NE) 13:21:53 435.822/435.867
VELOX 1 29 Aug 13:18:09 13:22:35 57° 101° (ESE) 13:26:58 145.980
HO-68 29 Aug 13:18:35 13:21:08 12° 331° (NNW) 13:23:40 435.675
Gurwin Techsat 1B 29 Aug 13:21:35 13:26:18 34° 61° (ENE) 13:31:03 435.225
BEESAT 3 29 Aug 13:21:57 13:24:46 18° 343° (NNW) 13:27:34 437.485
SPROUT 29 Aug 13:23:34 13:27:35 37° 97° (E) 13:31:32 437.525
DX 1 29 Aug 13:28:46 13:33:04 50° 100° (E) 13:37:20 434.975-435.025
ISS 29 Aug 13:32:33 13:35:46 50° 196° (SSW) 13:38:58 145.825
Oscar 19 29 Aug 13:34:06 13:39:15 73° 71° (ENE) 13:44:28 437.125/150
TISAT 1 29 Aug 13:36:41 13:38:49 14° 87° (E) 13:40:56 437.305
BUGSAT 1 29 Aug 13:44:11 13:47:33 22° 268° (W) 13:50:54 437.445
JAS-2 29 Aug 13:51:30 13:55:56 26° 270° (W) 14:00:44 435.910
AIST 2 29 Aug 13:55:51 13:59:59 75° 316° (NW) 14:04:10 435.215
PCSat 29 Aug 13:59:41 14:04:58 51° 318° (NW) 14:10:18 145.827
UKube-1 29 Aug 14:05:24 14:09:47 87° 105° (ESE) 14:14:07 .
O/OREOS (USA 219) 29 Aug 14:07:26 14:11:27 32° 107° (ESE) 14:15:30 437.305
AISAT 29 Aug 14:07:29 14:11:51 52° 292° (WNW) 14:16:11 437.250
ESTCUBE 1 29 Aug 14:07:45 14:11:50 34° 296° (WNW) 14:15:55 437.505/2401.250
AO-85 29 Aug 14:08:00 14:12:23 60° 232° (SW) 14:16:24 145.980
50 SAT 29 Aug 14:08:09 14:11:36 40° 292° (WNW) 14:15:02 437.505
AUBIESAT-1 29 Aug 14:19:02 14:22:38 28° 305° (NW) 14:26:00 437.475
M-CUBED/EXP-1 PRIME 29 Aug 14:26:42 14:30:03 22° 308° (NW) 14:33:11 437.505
Cosmos 2499 29 Aug 14:36:35 14:43:49 38° 295° (WNW) 14:50:38 435.465 / 435.565
BEESAT 2 29 Aug 14:46:46 14:49:11 15° 357° (N) 14:51:35 435.950
YUBILEINY 29 Aug 14:51:25 14:55:36 14° 35° (NE) 14:59:46 435.215
CUBEBUG 1 29 Aug 14:52:05 14:55:24 21° 302° (WNW) 14:58:41 437.445
ITAMSAT 1 29 Aug 14:52:45 14:57:51 60° 68° (ENE) 15:02:57 435.822/435.867
AO-7 29 Aug 14:53:02 15:01:04 54° 57° (ENE) 15:09:05 29.400- 29.500
VELOX 1 29 Aug 14:55:12 14:58:44 23° 301° (WNW) 15:02:16 145.980
GONETS M04 29 Aug 14:55:41 15:03:16 31° 303° (WNW) 15:10:57
SPROUT 29 Aug 14:59:41 15:03:28 31° 296° (WNW) 15:07:13 437.525
Gurwin Techsat 1B 29 Aug 15:00:59 15:06:08 49° 261° (W) 15:11:18 435.225
BEESAT 3 29 Aug 15:01:24 15:03:49 15° 7° (N) 15:06:15 437.485
DX 1 29 Aug 15:05:25 15:09:02 25° 300° (WNW) 15:12:38 434.975-435.025
ISS 29 Aug 15:09:31 15:11:44 17° 216° (SW) 15:13:57 145.825
ITUPSAT 1 29 Aug 15:09:57 15:13:50 24° 92° (E) 15:17:43 437.325
TISAT 1 29 Aug 15:10:49 15:15:04 83° 286° (WNW) 15:19:15 437.305
Oscar 19 29 Aug 15:15:17 15:19:08 21° 271° (W) 15:23:01 437.125/150
AIST 2 29 Aug 15:35:46 15:39:07 23° 338° (NNW) 15:42:29 435.215
SWISSCUBE 29 Aug 15:41:28 15:46:07 48° 100° (E) 15:50:43 437.505
UKube-1 29 Aug 15:42:34 15:45:15 16° 305° (NW) 15:47:56 .
PCSat 29 Aug 15:45:25 15:49:36 22° 342° (NNW) 15:53:47 145.827
O/OREOS (USA 219) 29 Aug 15:46:29 15:50:46 42° 308° (NW) 15:55:08 437.305
AISAT 29 Aug 15:46:45 15:47:21 10° 312° (NW) 15:47:58 437.250
MOZHAYETS 4 29 Aug 15:54:47 15:56:46 13° 85° (E) 15:58:43
BEESAT 29 Aug 15:58:20 16:03:05 61° 103° (ESE) 16:07:47 436.000
HORYU 2 29 Aug 16:00:03 16:03:09 19° 56° (NE) 16:06:15 437.375
NOAA 15 29 Aug 16:07:42 16:08:56 11° 43° (NE) 16:10:10 137.62
BEESAT 2 29 Aug 16:25:16 16:28:22 21° 21° (NNE) 16:31:27 435.950
ITAMSAT 1 29 Aug 16:33:26 16:37:42 25° 268° (W) 16:41:59 435.822/435.867
Cosmos 2499 29 Aug 16:37:52 16:39:32 11° 322° (NW) 16:41:11 435.465 / 435.565
GOMX 1 29 Aug 16:38:11 16:40:43 13° 47° (NE) 16:43:15 467.674
BEESAT 3 29 Aug 16:39:06 16:42:39 29° 30° (NNE) 16:46:10 437.485
Cosmos 2491 29 Aug 16:42:24 16:46:36 15° 67° (ENE) 16:50:49 435.465 / 435.565
AO-7 29 Aug 16:45:56 16:53:59 50° 259° (W) 17:02:04 29.400- 29.500
YUBILEINY 29 Aug 16:47:18 16:55:34 42° 64° (ENE) 17:03:43 435.215
ITUPSAT 1 29 Aug 16:47:20 16:52:01 55° 292° (WNW) 16:56:40 437.325
TISAT 1 29 Aug 16:47:54 16:50:04 14° 306° (NW) 16:52:15 437.305
HO-68 29 Aug 16:48:49 16:50:08 11° 25° (NNE) 16:51:27 435.675
GONETS M04 29 Aug 17:02:00 17:04:00 11° 334° (NNW) 17:06:01
NOAA 18 29 Aug 17:07:50 17:11:59 22° 53° (NE) 17:16:08 137.9125
KKS-1 29 Aug 17:08:51 17:13:07 41° 98° (E) 17:17:19 437.445
BRITE-PL 29 Aug 17:10:08 17:14:44 35° 62° (ENE) 17:19:39 437.365/2234.400
AIST 2 29 Aug 17:16:19 17:18:57 16° 2° (N) 17:21:36 435.215
SWISSCUBE 29 Aug 17:19:38 17:23:44 29° 299° (WNW) 17:27:50 437.505
CUBESAT XI-V 29 Aug 17:20:18 17:22:35 13° 85° (E) 17:24:52 437.345
O/OREOS (USA 219) 29 Aug 17:29:33 17:31:27 12° 332° (NNW) 17:33:22 437.305
MOZHAYETS 4 29 Aug 17:30:05 17:34:41 82° 104° (ESE) 17:39:17
PCSat 29 Aug 17:31:05 17:34:56 19° 8° (N) 17:38:47 145.827
HORYU 2 29 Aug 17:34:47 17:39:14 75° 255° (WSW) 17:43:43 437.375
Cosmos 2504 29 Aug 17:35:54 17:42:09 29° 59° (ENE) 17:48:15 435.465 / 435.565
BEESAT 29 Aug 17:36:43 17:40:32 24° 302° (WNW) 17:44:19 436.000
Cubesat XI-IV 29 Aug 17:37:34 17:42:18 34° 60° (ENE) 17:47:03 437.490
STARS 29 Aug 17:38:50 17:43:02 41° 99° (E) 17:47:11 437.465
NOAA 15 29 Aug 17:42:31 17:47:28 44° 64° (ENE) 17:52:29 137.62
CUTE-I 29 Aug 17:48:27 17:53:23 40° 63° (ENE) 17:58:20 437.470
BEESAT 2 29 Aug 18:02:52 18:06:54 65° 43° (NE) 18:10:53 435.950
DOVE 4 29 Aug 18:08:54 18:13:26 30° 61° (ENE) 18:18:00 437.250
GOMX 1 29 Aug 18:12:31 18:17:39 55° 68° (ENE) 18:23:01 467.674
BEESAT 3 29 Aug 18:16:40 18:20:35 61° 232° (SW) 18:24:31 437.485
LilacSat-2 29 Aug 18:23:15 18:27:02 60° 72° (ENE) 18:30:49 437.200
ITUPSAT 1 29 Aug 18:27:12 18:28:54 12° 312° (NW) 18:30:36 437.325
HO-68 29 Aug 18:29:43 18:35:37 29° 49° (NE) 18:41:32 435.675
Cosmos 2491 29 Aug 18:32:59 18:41:25 57° 91° (E) 18:49:57 435.465 / 435.565
CINEMA 3 29 Aug 18:35:01 18:38:19 18° 56° (NE) 18:41:34 145.822/145.860
CANX-2 29 Aug 18:43:04 18:45:23 15° 55° (NE) 18:47:43 2200.000
YUBILEINY 29 Aug 18:44:15 18:52:51 61° 268° (W) 19:01:21 435.215
KKS-1 29 Aug 18:45:39 18:49:35 31° 298° (WNW) 18:53:29 437.445
NOAA 18 29 Aug 18:46:30 18:52:03 86° 253° (WSW) 18:57:37 137.9125
AO-7 29 Aug 18:46:35 18:49:00 11° 283° (WNW) 18:51:25 29.400- 29.500
BRITE-PL 29 Aug 18:48:13 18:53:05 46° 263° (W) 18:58:20 437.365/2234.400
CUTE 1.7 + AOD 2 29 Aug 18:48:43 18:51:02 15° 55° (NE) 18:53:22 437.475
AIST 2 29 Aug 18:55:14 18:58:45 25° 25° (NNE) 19:02:15 435.215
CUBESAT XI-V 29 Aug 18:55:59 19:00:43 83° 102° (ESE) 19:05:27 437.345
MOZHAYETS 4 29 Aug 19:08:15 19:11:19 18° 304° (NW) 19:14:23
PCSat 29 Aug 19:14:55 19:19:55 35° 34° (NNE) 19:24:52 145.827
HORYU 2 29 Aug 19:15:20 19:16:35 11° 275° (W) 19:17:52 437.375
STARS 29 Aug 19:15:27 19:19:17 30° 298° (WNW) 19:23:05 437.465
